AAL2639 MMPR-KDFW

Flight info

Callsign AAL2639
Flight time 2h 5m
Altitude 37000
Route XUDED1A XUDED UT148 OTEKA UT1 MOV DCT PNG DCT CSI DCT GUTZZ BOOVE7
Aircraft B738/M-SDE2E3FGHIRWXY/LB1

Departure

Time 2026-04-17 07:37
Airport Puerto Vallarta International Airport (MMPR)

Arrival

Time 2026-04-17 09:43
Airport Dallas Fort Worth International Airport (KDFW)
Time Latitude Longitude Altitude Speed Heading
2026-04-17 07:10 20.68082 -105.24681 28 ft 0 kts 227°
2026-04-17 07:11 20.68081 -105.24682 28 ft 0 kts 227°
2026-04-17 07:28 20.68090 -105.24671 28 ft 4 kts 231°
2026-04-17 07:28 20.68105 -105.24647 28 ft 4 kts 246°
2026-04-17 07:28 20.68111 -105.24621 28 ft 4 kts 281°
2026-04-17 07:29 20.68105 -105.24607 28 ft 0 kts 316°
2026-04-17 07:30 20.68106 -105.24608 28 ft 1 kts 316°
2026-04-17 07:31 20.68115 -105.24618 28 ft 3 kts 316°
2026-04-17 07:31 20.68134 -105.24637 28 ft 5 kts 316°
2026-04-17 07:31 20.68163 -105.24665 28 ft 6 kts 317°
2026-04-17 07:31 20.68200 -105.24698 28 ft 7 kts 333°
2026-04-17 07:32 20.68250 -105.24694 28 ft 8 kts 16°
2026-04-17 07:32 20.68307 -105.24675 28 ft 9 kts 17°
2026-04-17 07:32 20.68373 -105.24654 28 ft 10 kts 17°
2026-04-17 07:32 20.68446 -105.24630 28 ft 11 kts 17°
2026-04-17 07:33 20.68510 -105.24581 28 ft 12 kts 49°
2026-04-17 07:33 20.68569 -105.24516 28 ft 13 kts 48°
2026-04-17 07:33 20.68631 -105.24442 28 ft 14 kts 47°
2026-04-17 07:33 20.68699 -105.24364 28 ft 14 kts 47°
2026-04-17 07:34 20.68752 -105.24303 28 ft 11 kts 47°
2026-04-17 07:34 20.68799 -105.24262 28 ft 8 kts 21°
2026-04-17 07:34 20.68854 -105.24270 28 ft 8 kts 322°
2026-04-17 07:34 20.68875 -105.24291 28 ft 0 kts 317°
2026-04-17 07:35 20.68884 -105.24300 28 ft 3 kts 316°
2026-04-17 07:36 20.68906 -105.24322 28 ft 4 kts 317°
2026-04-17 07:36 20.68928 -105.24344 28 ft 4 kts 316°
2026-04-17 07:36 20.68922 -105.24371 28 ft 4 kts 230°
2026-04-17 07:36 20.68901 -105.24394 28 ft 5 kts 226°
2026-04-17 07:37 20.68761 -105.24554 29 ft 66 kts 227°
2026-04-17 07:37 20.68280 -105.25107 27 ft 135 kts 227°
2026-04-17 07:37 20.67524 -105.25971 276 ft 171 kts 226°
2026-04-17 07:37 20.66683 -105.26905 1056 ft 179 kts 226°
2026-04-17 07:38 20.65786 -105.27906 1629 ft 200 kts 227°
2026-04-17 07:38 20.64783 -105.29029 2198 ft 213 kts 229°
2026-04-17 07:38 20.64141 -105.30428 2817 ft 214 kts 270°
2026-04-17 07:38 20.64554 -105.31898 3430 ft 208 kts 312°
2026-04-17 07:39 20.65684 -105.32825 4072 ft 206 kts 339°
2026-04-17 07:39 20.67031 -105.33322 4768 ft 205 kts 345°
2026-04-17 07:39 20.68412 -105.33735 5382 ft 208 kts 346°
2026-04-17 07:39 20.69818 -105.34146 5976 ft 211 kts 345°
2026-04-17 07:40 20.71239 -105.34566 6579 ft 213 kts 345°
2026-04-17 07:40 20.72687 -105.34998 7130 ft 217 kts 344°
2026-04-17 07:40 20.74157 -105.35441 7656 ft 222 kts 344°
2026-04-17 07:40 20.75660 -105.35897 8184 ft 227 kts 343°
2026-04-17 07:41 20.77189 -105.36363 8740 ft 230 kts 343°
2026-04-17 07:41 20.78745 -105.36839 9289 ft 235 kts 343°
2026-04-17 07:41 20.80307 -105.37318 9857 ft 238 kts 343°
2026-04-17 07:41 20.81915 -105.37812 10352 ft 242 kts 343°
2026-04-17 07:42 20.83545 -105.38313 10868 ft 245 kts 343°
2026-04-17 07:42 20.85194 -105.38821 11387 ft 248 kts 343°
2026-04-17 07:42 20.86860 -105.39329 11896 ft 251 kts 345°
2026-04-17 07:42 20.88630 -105.39619 12138 ft 268 kts 356°
2026-04-17 07:43 20.90561 -105.39716 12325 ft 286 kts 358°
2026-04-17 07:43 20.92612 -105.39789 12509 ft 308 kts 358°
2026-04-17 07:43 20.94830 -105.39881 12685 ft 330 kts 357°
2026-04-17 07:43 20.97196 -105.40002 12862 ft 350 kts 357°
2026-04-17 07:44 20.99673 -105.40144 13277 ft 361 kts 357°
2026-04-17 07:44 21.02146 -105.40290 13861 ft 365 kts 358°
2026-04-17 07:44 21.04673 -105.40066 14425 ft 368 kts 17°
2026-04-17 07:44 21.07068 -105.39108 15065 ft 368 kts 23°
2026-04-17 07:45 21.09454 -105.38058 15636 ft 372 kts 22°
2026-04-17 07:45 21.11836 -105.37031 16200 ft 376 kts 22°
2026-04-17 07:45 21.14282 -105.35998 16779 ft 379 kts 21°
2026-04-17 07:45 21.16751 -105.34966 17366 ft 382 kts 21°
2026-04-17 07:46 21.19241 -105.33924 17938 ft 386 kts 21°
2026-04-17 07:46 21.21755 -105.32871 18454 ft 390 kts 21°
2026-04-17 07:46 21.24300 -105.31806 18921 ft 394 kts 21°
2026-04-17 07:46 21.26865 -105.30731 19393 ft 398 kts 21°
2026-04-17 07:47 21.29452 -105.29646 19855 ft 401 kts 21°
2026-04-17 07:47 21.32066 -105.28550 20310 ft 405 kts 21°
2026-04-17 07:47 21.34704 -105.27443 20780 ft 409 kts 20°
2026-04-17 07:47 21.37280 -105.26361 21208 ft 413 kts 20°
2026-04-17 07:48 21.39970 -105.25231 21651 ft 417 kts 20°
2026-04-17 07:48 21.42678 -105.24093 22081 ft 420 kts 20°
2026-04-17 07:48 21.45383 -105.22956 22506 ft 424 kts 20°
2026-04-17 07:48 21.48145 -105.21795 22928 ft 428 kts 20°
2026-04-17 07:49 21.50927 -105.20624 23339 ft 432 kts 20°
2026-04-17 07:49 21.53719 -105.19449 23717 ft 435 kts 20°
2026-04-17 07:49 21.56549 -105.18257 24070 ft 438 kts 19°
2026-04-17 07:49 21.59392 -105.17059 24434 ft 440 kts 19°
2026-04-17 07:50 21.62254 -105.15853 24795 ft 443 kts 19°
2026-04-17 07:50 21.65136 -105.14637 25143 ft 446 kts 19°
2026-04-17 07:50 21.68033 -105.13415 25485 ft 449 kts 19°
2026-04-17 07:50 21.70947 -105.12185 25833 ft 451 kts 19°
2026-04-17 07:51 21.73881 -105.10946 26180 ft 454 kts 19°
2026-04-17 07:51 21.76826 -105.09701 26525 ft 457 kts 19°
2026-04-17 07:51 21.79794 -105.08446 26855 ft 459 kts 19°
2026-04-17 07:51 21.82785 -105.07181 27188 ft 462 kts 18°
2026-04-17 07:52 21.85786 -105.05909 27503 ft 465 kts 19°
2026-04-17 07:52 21.88771 -105.04550 27826 ft 468 kts 21°
2026-04-17 07:52 21.91751 -105.03113 28136 ft 471 kts 21°
2026-04-17 07:52 21.94738 -105.01642 28432 ft 473 kts 21°
2026-04-17 07:53 21.97744 -105.00159 28744 ft 476 kts 21°
2026-04-17 07:53 22.00697 -104.98710 29044 ft 478 kts 21°
2026-04-17 07:53 22.03740 -104.97227 29311 ft 481 kts 21°
2026-04-17 07:53 22.06800 -104.95744 29621 ft 483 kts 21°
2026-04-17 07:54 22.09869 -104.94261 29905 ft 485 kts 21°
2026-04-17 07:54 22.12961 -104.92768 30177 ft 487 kts 21°
2026-04-17 07:54 22.16024 -104.91289 30408 ft 490 kts 21°
2026-04-17 07:54 22.19146 -104.89781 30658 ft 492 kts 20°
2026-04-17 07:55 22.22268 -104.88271 30913 ft 493 kts 20°
2026-04-17 07:55 22.25411 -104.86749 31135 ft 495 kts 20°
2026-04-17 07:55 22.28564 -104.85223 31361 ft 498 kts 20°
2026-04-17 07:55 22.31731 -104.83688 31576 ft 500 kts 20°
2026-04-17 07:56 22.34899 -104.82152 31916 ft 499 kts 20°
2026-04-17 07:56 22.38062 -104.80616 32269 ft 497 kts 20°
2026-04-17 07:56 22.41211 -104.79087 32558 ft 496 kts 20°
2026-04-17 07:56 22.44360 -104.77558 32803 ft 497 kts 20°
2026-04-17 07:57 22.47524 -104.76021 33072 ft 498 kts 20°
2026-04-17 07:57 22.50682 -104.74486 33391 ft 497 kts 20°
2026-04-17 07:57 22.53831 -104.72954 33691 ft 496 kts 20°
2026-04-17 07:57 22.56982 -104.71421 33967 ft 497 kts 20°
2026-04-17 07:58 22.60048 -104.69651 34192 ft 501 kts 29°
2026-04-17 07:58 22.62869 -104.67402 34399 ft 505 kts 38°
2026-04-17 07:58 22.65481 -104.64921 34614 ft 506 kts 39°
2026-04-17 07:58 22.68128 -104.62329 34800 ft 507 kts 40°
2026-04-17 07:59 22.70702 -104.59788 34981 ft 508 kts 40°
2026-04-17 07:59 22.73318 -104.57218 35264 ft 506 kts 39°
2026-04-17 07:59 22.75937 -104.54666 35465 ft 507 kts 39°
2026-04-17 07:59 22.78574 -104.52116 35617 ft 509 kts 39°
2026-04-17 08:00 22.81223 -104.49567 35796 ft 509 kts 39°
2026-04-17 08:00 22.83876 -104.47022 36006 ft 509 kts 38°
2026-04-17 08:00 22.86528 -104.44478 36185 ft 509 kts 39°
2026-04-17 08:00 22.89184 -104.41929 36390 ft 510 kts 38°
2026-04-17 08:01 22.91838 -104.39380 36579 ft 510 kts 38°
2026-04-17 08:01 22.94499 -104.36822 36773 ft 510 kts 38°
2026-04-17 08:01 22.97156 -104.34264 36960 ft 511 kts 38°
2026-04-17 08:01 22.99814 -104.31704 37041 ft 513 kts 38°
2026-04-17 08:02 23.05099 -104.26609 37034 ft 512 kts 38°
2026-04-17 08:02 23.10399 -104.21491 37039 ft 508 kts 38°
2026-04-17 08:03 23.15664 -104.16402 37035 ft 505 kts 38°
2026-04-17 08:03 23.20865 -104.11372 37039 ft 504 kts 38°
2026-04-17 08:04 23.26137 -104.06271 37042 ft 510 kts 38°
2026-04-17 08:04 23.31467 -104.01105 37028 ft 515 kts 38°
2026-04-17 08:05 23.36834 -103.95897 37026 ft 518 kts 38°
2026-04-17 08:05 23.42184 -103.90695 37007 ft 511 kts 38°
2026-04-17 08:06 23.47462 -103.85558 37025 ft 508 kts 38°
2026-04-17 08:06 23.52737 -103.80423 37016 ft 508 kts 38°
2026-04-17 08:07 23.57997 -103.75296 37028 ft 508 kts 38°
2026-04-17 08:07 23.63235 -103.70185 37016 ft 509 kts 38°
2026-04-17 08:08 23.68509 -103.65032 37016 ft 509 kts 38°
2026-04-17 08:08 23.73789 -103.59867 37019 ft 510 kts 38°
2026-04-17 08:09 23.79074 -103.54691 37019 ft 511 kts 38°
2026-04-17 08:09 23.84363 -103.49505 37011 ft 512 kts 38°
2026-04-17 08:10 23.88774 -103.45176 37005 ft 512 kts 38°
2026-04-17 08:10 23.94076 -103.39965 37013 ft 512 kts 38°
2026-04-17 08:11 23.99372 -103.34755 36999 ft 512 kts 38°
2026-04-17 08:11 24.04676 -103.29730 36992 ft 508 kts 31°
2026-04-17 08:12 24.10739 -103.25921 37002 ft 501 kts 22°
2026-04-17 08:12 24.16892 -103.22326 36989 ft 502 kts 23°
2026-04-17 08:13 24.23015 -103.18640 36981 ft 501 kts 24°
2026-04-17 08:14 24.32137 -103.13133 36974 ft 501 kts 24°
2026-04-17 08:14 24.38251 -103.09444 36955 ft 501 kts 24°
2026-04-17 08:15 24.44351 -103.05761 36955 ft 500 kts 24°
2026-04-17 08:15 24.50449 -103.02076 36957 ft 500 kts 24°
2026-04-17 08:16 24.56550 -102.98384 36952 ft 500 kts 24°
2026-04-17 08:16 24.62650 -102.94689 36939 ft 501 kts 24°
2026-04-17 08:17 24.68748 -102.90989 36944 ft 500 kts 24°
2026-04-17 08:17 24.74843 -102.87288 36938 ft 500 kts 24°
2026-04-17 08:18 24.80904 -102.83604 36939 ft 501 kts 24°
2026-04-17 08:18 24.87018 -102.79816 36939 ft 501 kts 25°
2026-04-17 08:19 24.93036 -102.76023 36938 ft 501 kts 25°
2026-04-17 08:19 24.99092 -102.72213 36933 ft 501 kts 25°
2026-04-17 08:20 25.05078 -102.68453 36934 ft 501 kts 25°
2026-04-17 08:20 25.11129 -102.64653 36938 ft 500 kts 25°
2026-04-17 08:21 25.17178 -102.60866 36932 ft 500 kts 25°
2026-04-17 08:21 25.23231 -102.57076 36940 ft 499 kts 25°
2026-04-17 08:22 25.29240 -102.53307 36927 ft 500 kts 25°
2026-04-17 08:22 25.35294 -102.49504 36926 ft 501 kts 25°
2026-04-17 08:23 25.41355 -102.45691 36928 ft 502 kts 25°
2026-04-17 08:23 25.47435 -102.41862 36921 ft 503 kts 25°
2026-04-17 08:24 25.53520 -102.38024 36917 ft 503 kts 25°
2026-04-17 08:24 25.59602 -102.34184 36929 ft 504 kts 25°
2026-04-17 08:25 25.65701 -102.30330 36910 ft 504 kts 25°
2026-04-17 08:25 25.71793 -102.26474 36918 ft 504 kts 25°
2026-04-17 08:26 25.77881 -102.22616 36920 ft 503 kts 25°
2026-04-17 08:26 25.83957 -102.18762 36925 ft 503 kts 25°
2026-04-17 08:27 25.90028 -102.14906 36932 ft 502 kts 25°
2026-04-17 08:27 25.96056 -102.11074 36931 ft 502 kts 25°
2026-04-17 08:28 26.02037 -102.07267 36936 ft 502 kts 25°
2026-04-17 08:28 26.08091 -102.03408 36936 ft 501 kts 25°
2026-04-17 08:29 26.14145 -101.99545 36939 ft 501 kts 25°
2026-04-17 08:29 26.20194 -101.95680 36948 ft 501 kts 25°
2026-04-17 08:30 26.26248 -101.91808 36939 ft 503 kts 25°
2026-04-17 08:30 26.32314 -101.87923 36945 ft 502 kts 25°
2026-04-17 08:31 26.38361 -101.84045 36941 ft 501 kts 24°
2026-04-17 08:31 26.44411 -101.80161 36945 ft 501 kts 24°
2026-04-17 08:32 26.50451 -101.76278 36933 ft 501 kts 24°
2026-04-17 08:32 26.56456 -101.72413 36944 ft 500 kts 24°
2026-04-17 08:33 26.62487 -101.68527 36949 ft 500 kts 24°
2026-04-17 08:33 26.68530 -101.64628 36916 ft 501 kts 24°
2026-04-17 08:34 26.74559 -101.60734 36935 ft 500 kts 24°
2026-04-17 08:34 26.80591 -101.56832 36914 ft 501 kts 24°
2026-04-17 08:35 26.86635 -101.52917 36903 ft 502 kts 24°
2026-04-17 08:35 26.92683 -101.48996 36904 ft 503 kts 24°
2026-04-17 08:36 26.98754 -101.45229 36896 ft 500 kts 20°
2026-04-17 08:36 27.04937 -101.41856 36894 ft 499 kts 19°
2026-04-17 08:37 27.11216 -101.38506 36885 ft 500 kts 19°
2026-04-17 08:37 27.17482 -101.35109 36883 ft 501 kts 19°
2026-04-17 08:38 27.23749 -101.31667 36880 ft 501 kts 19°
2026-04-17 08:38 27.30011 -101.28214 36880 ft 501 kts 19°
2026-04-17 08:39 27.36272 -101.24758 36890 ft 501 kts 19°
2026-04-17 08:39 27.42533 -101.21300 36879 ft 501 kts 19°
2026-04-17 08:40 27.48793 -101.17840 36878 ft 501 kts 19°
2026-04-17 08:40 27.55053 -101.14376 36877 ft 501 kts 19°
2026-04-17 08:41 27.61264 -101.10934 36880 ft 501 kts 19°
2026-04-17 08:41 27.67513 -101.07466 36880 ft 501 kts 19°
2026-04-17 08:42 27.73761 -101.03995 36883 ft 500 kts 19°
2026-04-17 08:42 27.80014 -101.00517 36878 ft 500 kts 19°
2026-04-17 08:43 27.86258 -100.97038 36884 ft 500 kts 19°
2026-04-17 08:43 27.92499 -100.93557 36884 ft 500 kts 19°
2026-04-17 08:44 27.98748 -100.90067 36886 ft 500 kts 19°
2026-04-17 08:44 28.04909 -100.86623 36891 ft 500 kts 19°
2026-04-17 08:45 28.11150 -100.83128 36882 ft 500 kts 19°
2026-04-17 08:45 28.17349 -100.79652 36889 ft 500 kts 19°
2026-04-17 08:46 28.23583 -100.76152 36891 ft 500 kts 19°
2026-04-17 08:46 28.29813 -100.72651 36889 ft 500 kts 19°
2026-04-17 08:47 28.36044 -100.69143 36890 ft 500 kts 19°
2026-04-17 08:47 28.42271 -100.65633 36886 ft 500 kts 19°
2026-04-17 08:48 28.48503 -100.62116 36887 ft 500 kts 19°
2026-04-17 08:48 28.54734 -100.58594 36886 ft 500 kts 19°
2026-04-17 08:49 28.60965 -100.55063 36887 ft 501 kts 20°
2026-04-17 08:49 28.66765 -100.50485 36895 ft 515 kts 36°
2026-04-17 08:50 28.72098 -100.45012 36890 ft 516 kts 37°
2026-04-17 08:50 28.77401 -100.39499 36884 ft 516 kts 37°
2026-04-17 08:51 28.82739 -100.34035 36894 ft 515 kts 36°
2026-04-17 08:51 28.88016 -100.28680 36897 ft 515 kts 36°
2026-04-17 08:52 28.93373 -100.23249 36898 ft 515 kts 36°
2026-04-17 08:52 28.98715 -100.17819 36902 ft 514 kts 36°
2026-04-17 08:53 29.03989 -100.12446 36911 ft 514 kts 36°
2026-04-17 08:53 29.09320 -100.07006 36922 ft 513 kts 36°
2026-04-17 08:54 29.14644 -100.01566 36938 ft 513 kts 36°
2026-04-17 08:54 29.19927 -99.96160 36945 ft 513 kts 36°
2026-04-17 08:55 29.25240 -99.90715 36943 ft 512 kts 36°
2026-04-17 08:55 29.30547 -99.85269 36965 ft 512 kts 36°
2026-04-17 08:56 29.35856 -99.79813 36962 ft 513 kts 36°
2026-04-17 08:56 29.41164 -99.74350 36951 ft 513 kts 36°
2026-04-17 08:57 29.46471 -99.68879 36940 ft 513 kts 36°
2026-04-17 08:57 29.51787 -99.63392 36947 ft 514 kts 36°
2026-04-17 08:58 29.57105 -99.57894 36933 ft 514 kts 36°
2026-04-17 08:58 29.62385 -99.52427 36949 ft 514 kts 36°
2026-04-17 08:59 29.67703 -99.46913 36939 ft 515 kts 36°
2026-04-17 08:59 29.73026 -99.41385 36934 ft 516 kts 36°
2026-04-17 09:00 29.78353 -99.35845 36931 ft 516 kts 36°
2026-04-17 09:00 29.82774 -99.31239 36960 ft 516 kts 36°
2026-04-17 09:01 29.88104 -99.25680 36979 ft 516 kts 36°
2026-04-17 09:01 29.93536 -99.20323 36975 ft 509 kts 26°
2026-04-17 09:02 29.99503 -99.16025 36992 ft 504 kts 23°
2026-04-17 09:02 30.05454 -99.11928 36992 ft 504 kts 23°
2026-04-17 09:03 30.11461 -99.07729 36981 ft 505 kts 24°
2026-04-17 09:03 30.17457 -99.03472 36966 ft 506 kts 24°
2026-04-17 09:04 30.23441 -98.99197 36948 ft 505 kts 24°
2026-04-17 09:04 30.29386 -98.94945 36934 ft 505 kts 24°
2026-04-17 09:05 30.35359 -98.90670 36927 ft 505 kts 24°
2026-04-17 09:05 30.41332 -98.86391 36923 ft 504 kts 24°
2026-04-17 09:06 30.47296 -98.82113 36928 ft 504 kts 24°
2026-04-17 09:06 30.53251 -98.77835 36939 ft 503 kts 24°
2026-04-17 09:07 30.59205 -98.73551 36956 ft 503 kts 24°
2026-04-17 09:07 30.65101 -98.69303 36965 ft 502 kts 24°
2026-04-17 09:08 30.71075 -98.64992 36973 ft 502 kts 24°
2026-04-17 09:08 30.76959 -98.60739 36974 ft 502 kts 24°
2026-04-17 09:09 30.82881 -98.56453 36978 ft 501 kts 24°
2026-04-17 09:09 30.88800 -98.52163 36958 ft 501 kts 24°
2026-04-17 09:10 30.97691 -98.45708 36947 ft 502 kts 24°
2026-04-17 09:10 31.03540 -98.41453 36952 ft 502 kts 24°
2026-04-17 09:11 31.09466 -98.37135 36960 ft 502 kts 24°
2026-04-17 09:11 31.15386 -98.32816 36958 ft 502 kts 24°
2026-04-17 09:12 31.21314 -98.28483 36957 ft 502 kts 24°
2026-04-17 09:12 31.27235 -98.24149 36953 ft 502 kts 24°
2026-04-17 09:13 31.33151 -98.19812 36949 ft 502 kts 24°
2026-04-17 09:13 31.39092 -98.15460 36423 ft 507 kts 22°
2026-04-17 09:14 31.42230 -98.13765 35904 ft 485 kts
2026-04-17 09:14 31.45477 -98.13048 35383 ft 469 kts 357°
2026-04-17 09:14 31.48724 -98.12626 34808 ft 468 kts 356°
2026-04-17 09:14 31.51924 -98.12233 34208 ft 470 kts 357°
2026-04-17 09:15 31.55189 -98.11801 33544 ft 472 kts 358°
2026-04-17 09:15 31.58451 -98.11329 32879 ft 473 kts 359°
2026-04-17 09:15 31.61720 -98.10835 32211 ft 474 kts 359°
2026-04-17 09:15 31.64994 -98.10180 31526 ft 484 kts
2026-04-17 09:16 31.68125 -98.08553 30883 ft 499 kts 24°
2026-04-17 09:16 31.71114 -98.06464 30197 ft 501 kts 25°
2026-04-17 09:16 31.74092 -98.04322 29467 ft 501 kts 26°
2026-04-17 09:16 31.77055 -98.02208 28908 ft 495 kts 25°
2026-04-17 09:17 31.79999 -98.00150 28364 ft 490 kts 25°
2026-04-17 09:17 31.82887 -97.98165 27831 ft 485 kts 25°
2026-04-17 09:17 31.85830 -97.96151 27294 ft 480 kts 25°
2026-04-17 09:17 31.88673 -97.94224 26780 ft 476 kts 24°
2026-04-17 09:18 31.91539 -97.92327 26262 ft 471 kts 24°
2026-04-17 09:18 31.94436 -97.90428 25738 ft 467 kts 24°
2026-04-17 09:18 31.97227 -97.88601 25239 ft 464 kts 24°
2026-04-17 09:18 32.00002 -97.86778 24745 ft 461 kts 25°
2026-04-17 09:19 32.02804 -97.84932 24224 ft 459 kts 25°
2026-04-17 09:19 32.05545 -97.83120 23724 ft 457 kts 25°
2026-04-17 09:19 32.08311 -97.81288 23154 ft 454 kts 25°
2026-04-17 09:19 32.11057 -97.79468 22607 ft 451 kts 25°
2026-04-17 09:20 32.13774 -97.77665 22084 ft 447 kts 25°
2026-04-17 09:20 32.16468 -97.75877 21586 ft 442 kts 26°
2026-04-17 09:20 32.19135 -97.74097 21109 ft 438 kts 26°
2026-04-17 09:20 32.21771 -97.72333 20619 ft 434 kts 26°
2026-04-17 09:21 32.24393 -97.70611 20130 ft 429 kts 24°
2026-04-17 09:21 32.27038 -97.69026 19651 ft 424 kts 22°
2026-04-17 09:21 32.29686 -97.67505 19167 ft 421 kts 22°
2026-04-17 09:21 32.32309 -97.65993 18683 ft 418 kts 22°
2026-04-17 09:22 32.34911 -97.64470 18215 ft 416 kts 23°
2026-04-17 09:22 32.37454 -97.62957 18019 ft 404 kts 25°
2026-04-17 09:22 32.39735 -97.61031 17595 ft 405 kts 41°
2026-04-17 09:22 32.41684 -97.58709 17178 ft 401 kts 43°
2026-04-17 09:23 32.43674 -97.56347 16718 ft 398 kts 43°
2026-04-17 09:23 32.45620 -97.54088 16285 ft 395 kts 42°
2026-04-17 09:23 32.47588 -97.51837 15855 ft 392 kts 42°
2026-04-17 09:23 32.49550 -97.49605 15415 ft 390 kts 42°
2026-04-17 09:24 32.51493 -97.47393 15042 ft 387 kts 43°
2026-04-17 09:24 32.53431 -97.45181 14619 ft 385 kts 43°
2026-04-17 09:24 32.55350 -97.42987 14316 ft 379 kts 43°
2026-04-17 09:24 32.57224 -97.40842 14129 ft 371 kts 43°
2026-04-17 09:25 32.59075 -97.38722 13746 ft 369 kts 44°
2026-04-17 09:25 32.60912 -97.36616 13449 ft 364 kts 44°
2026-04-17 09:25 32.62704 -97.34562 13288 ft 355 kts 44°
2026-04-17 09:25 32.64461 -97.32546 13117 ft 346 kts 44°
2026-04-17 09:26 32.66167 -97.30588 12974 ft 338 kts 44°
2026-04-17 09:26 32.67836 -97.28672 12819 ft 329 kts 44°
2026-04-17 09:26 32.69460 -97.26805 12668 ft 322 kts 44°
2026-04-17 09:26 32.71058 -97.24968 12532 ft 317 kts 44°
2026-04-17 09:27 32.72624 -97.23167 12392 ft 310 kts 44°
2026-04-17 09:27 32.74154 -97.21406 12255 ft 303 kts 44°
2026-04-17 09:27 32.75649 -97.19686 12127 ft 296 kts 44°
2026-04-17 09:27 32.77119 -97.18012 12039 ft 288 kts 39°
2026-04-17 09:28 32.78833 -97.16912 11921 ft 278 kts 12°
2026-04-17 09:28 32.80729 -97.16639 11664 ft 274 kts 356°
2026-04-17 09:28 32.82635 -97.16622 11418 ft 275 kts 355°
2026-04-17 09:28 32.84546 -97.16627 11192 ft 273 kts 355°
2026-04-17 09:29 32.86403 -97.16622 11220 ft 261 kts 355°
2026-04-17 09:29 32.88262 -97.16609 10714 ft 274 kts 356°
2026-04-17 09:29 32.90160 -97.16591 10400 ft 274 kts 356°
2026-04-17 09:29 32.92044 -97.16573 10150 ft 268 kts 355°
2026-04-17 09:30 32.93889 -97.16555 9890 ft 263 kts 356°
2026-04-17 09:30 32.95706 -97.16539 9632 ft 261 kts 355°
2026-04-17 09:30 32.97517 -97.16525 9366 ft 259 kts 356°
2026-04-17 09:30 32.99314 -97.16510 9121 ft 258 kts 356°
2026-04-17 09:31 33.01067 -97.16493 8860 ft 257 kts 356°
2026-04-17 09:31 33.02846 -97.16473 8635 ft 255 kts 356°
2026-04-17 09:31 33.04616 -97.16452 8398 ft 254 kts 356°
2026-04-17 09:31 33.06359 -97.16433 8178 ft 254 kts 357°
2026-04-17 09:32 33.08127 -97.16411 7935 ft 254 kts 357°
2026-04-17 09:32 33.09891 -97.16391 7713 ft 254 kts 357°
2026-04-17 09:32 33.11657 -97.16371 7472 ft 254 kts 357°
2026-04-17 09:32 33.13426 -97.16350 7235 ft 254 kts 357°
2026-04-17 09:33 33.15201 -97.16330 7018 ft 257 kts 358°
2026-04-17 09:33 33.17007 -97.16310 6773 ft 261 kts 358°
2026-04-17 09:33 33.18832 -97.16289 6521 ft 262 kts 358°
2026-04-17 09:33 33.20657 -97.16271 6263 ft 264 kts 358°
2026-04-17 09:34 33.22483 -97.16256 6099 ft 259 kts
2026-04-17 09:34 33.24159 -97.15631 6015 ft 251 kts 39°
2026-04-17 09:34 33.25154 -97.14014 5960 ft 241 kts 78°
2026-04-17 09:34 33.25238 -97.12061 5909 ft 236 kts 98°
2026-04-17 09:35 33.25121 -97.10070 5740 ft 243 kts 98°
2026-04-17 09:35 33.24903 -97.08073 5573 ft 239 kts 116°
2026-04-17 09:35 33.23917 -97.06630 5448 ft 220 kts 156°
2026-04-17 09:35 33.22482 -97.06162 5302 ft 214 kts 171°
2026-04-17 09:36 33.21033 -97.05697 5123 ft 216 kts 167°
2026-04-17 09:36 33.19580 -97.05271 4913 ft 213 kts 178°
2026-04-17 09:36 33.18113 -97.05238 4748 ft 209 kts 183°
2026-04-17 09:36 33.16688 -97.05270 4595 ft 200 kts 183°
2026-04-17 09:37 33.15320 -97.05306 4400 ft 194 kts 183°
2026-04-17 09:37 33.13981 -97.05336 4221 ft 191 kts 182°
2026-04-17 09:37 33.12658 -97.05352 4066 ft 191 kts 182°
2026-04-17 09:37 33.11325 -97.05363 3905 ft 191 kts 183°
2026-04-17 09:38 33.09991 -97.05372 3723 ft 192 kts 183°
2026-04-17 09:38 33.08664 -97.05377 3569 ft 189 kts 182°
2026-04-17 09:38 33.07367 -97.05384 3411 ft 183 kts 182°
2026-04-17 09:38 33.06142 -97.05388 3280 ft 173 kts 183°
2026-04-17 09:39 33.04964 -97.05393 3152 ft 165 kts 184°
2026-04-17 09:39 33.03848 -97.05401 2958 ft 162 kts 184°
2026-04-17 09:39 33.02730 -97.05407 2764 ft 160 kts 184°
2026-04-17 09:39 33.01630 -97.05413 2568 ft 156 kts 184°
2026-04-17 09:40 33.00571 -97.05418 2350 ft 147 kts 184°
2026-04-17 09:40 32.99596 -97.05424 2189 ft 135 kts 183°
2026-04-17 09:40 32.98725 -97.05427 2040 ft 119 kts 183°
2026-04-17 09:40 32.97874 -97.05432 1861 ft 124 kts 182°
2026-04-17 09:41 32.97014 -97.05434 1697 ft 124 kts 182°
2026-04-17 09:41 32.96150 -97.05441 1523 ft 126 kts 181°
2026-04-17 09:41 32.95305 -97.05440 1407 ft 131 kts 180°
2026-04-17 09:41 32.94375 -97.05450 1194 ft 136 kts 179°
2026-04-17 09:42 32.93477 -97.05452 994 ft 125 kts 181°
2026-04-17 09:42 32.92596 -97.05461 829 ft 133 kts 180°
2026-04-17 09:42 32.91679 -97.05462 686 ft 128 kts 180°
2026-04-17 09:42 32.90829 -97.05468 615 ft 110 kts 181°
2026-04-17 09:43 32.90215 -97.05471 621 ft 66 kts 180°
2026-04-17 09:43 32.89917 -97.05473 619 ft 33 kts 180°
2026-04-17 09:43 32.89748 -97.05468 618 ft 21 kts 173°
2026-04-17 09:43 32.89610 -97.05418 623 ft 20 kts 154°
2026-04-17 09:44 32.89500 -97.05346 624 ft 10 kts 150°
2026-04-17 09:44 32.89442 -97.05307 615 ft 9 kts 150°
2026-04-17 09:44 32.89400 -97.05253 620 ft 8 kts 96°
2026-04-17 09:44 32.89402 -97.05184 620 ft 8 kts 90°
2026-04-17 09:45 32.89402 -97.05118 620 ft 8 kts 90°
2026-04-17 09:45 32.89401 -97.05046 615 ft 10 kts 90°
2026-04-17 09:45 32.89401 -97.04940 618 ft 15 kts 90°
2026-04-17 09:45 32.89400 -97.04820 622 ft 14 kts 90°
2026-04-17 09:46 32.89399 -97.04734 621 ft 8 kts 90°
2026-04-17 09:46 32.89417 -97.04676 620 ft 7 kts 27°
2026-04-17 09:46 32.89464 -97.04669 619 ft 7 kts 360°
2026-04-17 09:46 32.89511 -97.04669 621 ft 7 kts 360°
2026-04-17 09:47 32.89541 -97.04669 617 ft 3 kts
2026-04-17 09:47 32.89558 -97.04669 621 ft 3 kts
2026-04-17 09:47 32.89584 -97.04669 622 ft 4 kts
2026-04-17 09:47 32.89611 -97.04653 619 ft 5 kts 50°
2026-04-17 09:48 32.89620 -97.04616 622 ft 5 kts 78°
2026-04-17 09:48 32.89624 -97.04590 615 ft 2 kts 78°
2026-04-17 09:48 32.89626 -97.04577 619 ft 1 kts 78°
2026-04-17 09:48 32.89627 -97.04572 621 ft 1 kts 78°
2026-04-17 09:49 32.89627 -97.04571 621 ft 0 kts 78°